Tracking 35051 objects as of 17-Aug-2026
HD Live streaming from Space Station
objects crossing your sky now

STARLINK-38159


10-day predictions
STARLINK-38159 is classified as:


NORAD ID: 100186
Int'l Code: 2026-175H
Launch date: August 1, 2026
Source: United States (US)
Launch site: AIR FORCE WESTERN TEST RANGE (AFWTR)
Your satellite tracking list
Your tracking list is empty




NASA's NSSDC Master Catalog

Two Line Element Set (TLE):
1 A0186U 26175H   26229.50141234  .00206943  00000-0  10523-2 0  9994
2 A0186  97.2847  70.2540 0001581 100.2147 259.9299 15.80885783  3823
Source of the keplerian elements: AFSPC